Location: Kerguer�zec
(48.4509°N, 4.7600°W)
Time: 04:47:28
(UTC+00:00)

STARLINK-1238 - Pass Details

Date: 09 April 2020
Orbit: 549 x 550 km, 53.0° (Epoch: 29 May)

Event Time Altitude Azimuth Distance (km) Brightness Sun altitude
Rises 20:07:52 0° 295° (WNW) 2,727 9.4 -11.1°
Reaches altitude 10° 20:10:10 10° 290° (WNW) 1,830 7.8 -11.5°
Maximum altitude 20:14:10 48° 216° (SW) 730 4.3 -12.1°
Enters shadow 20:17:14 16° 146° (SE) 1,478 5.3 -12.5°
